This demonstration page uses our WeatherBlox Daily Observations layout. Learn more.

Left ArrowRight Arrow

Hourly Observations for December 6, 2017

Temp ( °F °C ) Dew Point ( °F °C ) Humidity (%) Winds ( mph kmh ) Pressure ( in mb ) Visibility ( mi km ) Precip ( " mm )
12:01 am 00:01 Cloudy with Light Rain 55 12.8 55 12.8 100 100 NW 6 9 30.09 1019 10 16 0.00 0.03
12:12 am 00:12 Cloudy 55 12.8 55 12.8 100 100 WNW 9 15 30.09 1019 10 16 0.00 0.03
12:53 am 00:53 Cloudy with Light Rain 53 11.7 52 11.1 96 96 NNW 15 24 30.09 1019 8 13 0.00 0.03
1:22 am 01:22 Cloudy 50 10 48 8.9 93 93 WNW 9 15 30.15 1021 10 16 0.00 0.03
1:32 am 01:32 Cloudy 48 8.9 44 6.7 86 86 NNW 10 17 30.15 1021 10 16 0.00 0.03
1:53 am 01:53 Cloudy 47 8.3 43 6.1 86 86 NNW 7 11 30.11 1020 10 16 0.00 0.03
2:17 am 02:17 Cloudy 46 7.8 40 4.4 79 79 NNW 6 9 30.15 1021 10 16 0.00 0.00
2:53 am 02:53 Mostly Cloudy 45 7.2 39 3.9 80 80 VRB 5 7 30.13 1020 10 16 0.00 0.00
3:03 am 03:03 Mostly Cloudy 45 7.2 39 3.9 80 80 Calm 30.15 1021 10 16 0.00 0.00
3:49 am 03:49 Mostly Cloudy 45 7 36 2 71 71 NW 10 17 30.18 1022 10 16 0.00 0.00
3:53 am 03:53 Mostly Cloudy 44 6.7 35 1.7 71 71 NW 10 17 30.13 1020 10 16 0.00 0.00
4:53 am 04:53 Clear 42 5.6 34 1.1 73 73 VRB 6 9 30.11 1020 10 16 0.00 0.00
5:53 am 05:53 Clear 41 5 32 0 70 70 NNW 13 20 30.13 1020 10 16 0.00 0.00
6:53 am 06:53 Clear 40 4.4 30 -1.1 68 68 NW 9 15 30.16 1021 10 16 0.00 0.00
7:53 am 07:53 Sunny 40 4.4 30 -1.1 68 68 NW 9 15 30.14 1021 10 16 0.00 0.00
8:53 am 08:53 Cloudy 40 4.4 29 -1.7 65 65 NW 10 17 30.17 1022 10 16 0.00 0.00
9:53 am 09:53 Cloudy 41 5 26 -3.3 55 55 NW 8 13 30.20 1023 10 16 0.00 0.00
10:53 am 10:53 Cloudy with Light Rain 41 5 26 -3.3 55 55 NW 10 17 30.18 1022 10 16 0.00 0.03
11:53 am 11:53 Cloudy 42 5.6 26 -3.3 53 53 NW 8 13 30.19 1023 10 16 0.00 0.03
12:53 pm 12:53 Cloudy with Light Rain 40 4.4 28 -2.2 63 63 WNW 5 7 30.19 1022 10 16 0.01 0.25
1:53 pm 13:53 Cloudy with Light Rain 38 3.3 32 0 79 79 N 5 7 30.16 1022 8 13 0.04 1.02
2:53 pm 14:53 Cloudy 38 3.3 33 0.6 83 83 NNW 3 6 30.13 1020 10 16 0.03 0.76
3:53 pm 15:53 Cloudy 40 4.4 34 1.1 79 79 Calm 30.11 1020 10 16 0.00 0.00
4:53 pm 16:53 Mostly Cloudy 40 4.4 32 0 73 73 WNW 5 7 30.14 1021 10 16 0.00 0.03
5:53 pm 17:53 Mostly Cloudy 41 5 31 -0.6 67 67 NW 5 7 30.13 1020 10 16 0.00 0.00
6:53 pm 18:53 Clear 41 5 28 -2.2 60 60 NW 10 17 30.15 1021 10 16 0.00 0.00
7:53 pm 19:53 Clear 41 5 27 -2.8 57 57 NW 6 9 30.18 1022 10 16 0.00 0.00
8:53 pm 20:53 Partly Cloudy 42 5.6 27 -2.8 55 55 NNW 8 13 30.19 1022 10 16 0.00 0.00
9:53 pm 21:53 Mostly Cloudy 42 5.6 27 -2.8 55 55 NW 6 9 30.19 1022 10 16 0.00 0.00
10:53 pm 22:53 Partly Cloudy 42 5.6 26 -3.3 53 53 VRB 3 6 30.19 1023 10 16 0.00 0.00
11:53 pm 23:53 Cloudy 42 5.6 27 -2.8 55 55 Calm 30.17 1022 10 16 0.00 0.00

Powered by AerisWeather